Location: Newark
(22.3060°N, 114.2134°E)
Time: 03:15:26
(UTC+00:00)

Vanguard 1 Rocket - Visible Passes

Search period start: 01 August 2021 00:00
Search period end: 11 August 2021 00:00
Orbit: 650 x 4226 km, 34.3° (Epoch: 31 July)

Date Brightness Start Highest point End Pass type
(mag) Time Alt. Az. Time Alt. Az. Time Alt. Az.
01 Aug 11.7 20:11:42 10° SSE 20:22:30 14° SE 20:33:18 10° ESE visible
02 Aug 11.6 21:19:36 10° SSW 21:40:31 32° SE 21:59:17 10° E visible
03 Aug 11.6 20:10:03 10° S 20:25:26 20° SE 20:40:58 10° E visible
04 Aug 11.5 21:20:32 10° SSW 21:42:56 40° SE 22:03:18 10° ENE visible
05 Aug 11.5 20:10:00 10° S 20:28:00 26° SE 20:46:33 10° E visible
06 Aug 11.5 19:03:15 10° SSE 19:13:16 14° SE 19:24:06 10° ESE visible
06 Aug 11.3 21:21:51 10° SSW 21:45:11 49° SE 22:06:50 10° ENE visible
07 Aug 11.3 20:10:43 10° SSW 20:30:17 34° SE 20:51:03 10° E visible
08 Aug 11.4 19:01:55 10° S 19:15:50 20° SE 19:31:37 10° E visible
08 Aug 11.1 21:23:31 10° SW 21:47:21 58° SE 22:10:04 10° ENE visible
09 Aug 11.2 20:11:56 10° SSW 20:32:23 42° SE 20:54:53 10° ENE visible
10 Aug 11.2 19:04:48 15° S 19:18:05 26° SE 19:37:03 10° E visible
10 Aug 11.0 21:25:28 10° SW 21:49:30 68° SE 22:13:04 10° ENE visible
